Flag for U.S.A. Weather past 2 weeks in Fort Collins, Colorado, U.S.A.

Now
46 °F

Sunny.


Feels Like: 41 °F
Forecast: 34 / 60 °F
Wind: 10 mph from Northeast

Location: Fort Collins-Loveland Municipal Airport


UV Index: 5 (Moderate)

Visibility: 10 mi


Pressure: 30.04 "Hg

Humidity: 43%

Dew point: 25 °F

Location of Fort CollinsLocation

Historic Weather in Fort Collins

°F

Fort Collins temperature yesterday

Maximum temperature yesterday: 64 °F (at 3:35 PM)
Minimum temperature yesterday: 21 °F (at 4:35 AM)
Average temperature yesterday: 44 °F

Past Weeks' High & Low Weather Summary

 TemperatureHumidityPressure
High77 °F (Apr 11, 4:55 PM)93% (Apr 2, 11:55 PM)30.31 "Hg (Apr 2, 11:55 PM)
Low16 °F (Apr 14, 6:35 AM)15% (Apr 11, 4:55 PM)29.65 "Hg (Apr 12, 6:55 PM)
Average46 °F50%29.96 "Hg
* Reported Apr 1 6:15 PM — Apr 16 6:35 PM, Fort Collins, Weather by CustomWeather, © 2014

Note: Actual official high and low records may vary slightly from our data, if they occured in-between our weather recording intervals... More about our weather records

Advertising

Historic Weather Conditions — Data for Previous 24 hours

 ConditionsComfort  
Time TempWeatherWind HumidityBarometerVisibility
6:35 PM
Apr 16
48 °FPassing clouds.8 mph40%30.02 "Hg10 mi
6:15 PM48 °FPassing clouds.8 mph40%30.01 "Hg10 mi
5:55 PM48 °FPassing clouds.10 mph40%30.00 "Hg10 mi
5:35 PM48 °FSunny.9 mph37%29.99 "Hg10 mi
5:15 PM48 °FSunny.10 mph40%29.98 "Hg10 mi
4:55 PM50 °FSunny.13 mph37%29.97 "Hg10 mi
4:35 PM50 °FSunny.14 mph37%29.96 "Hg10 mi
4:15 PM50 °FSunny.18 mph37%29.94 "Hg10 mi
3:55 PM52 °FSunny.13 mph35%29.93 "Hg10 mi
3:35 PM52 °FSunny.16 mph35%29.93 "Hg10 mi
3:15 PM52 °FSunny.16 mph35%29.92 "Hg10 mi
2:55 PM55 °FSunny.22 mph26%29.91 "Hg10 mi
2:35 PM55 °FSunny.16 mph28%29.91 "Hg10 mi
2:15 PM55 °FSunny.22 mph24%29.90 "Hg10 mi
1:55 PM57 °FSunny.17 mph25%29.90 "Hg10 mi
1:35 PM55 °FSunny.23 mph26%29.90 "Hg10 mi
1:15 PM55 °FSunny.21 mph26%29.91 "Hg10 mi
12:55 PM54 °FSunny.22 mph26%29.91 "Hg10 mi
12:35 PM54 °FSunny.17 mph28%29.92 "Hg10 mi
12:15 PM54 °FSunny.18 mph26%29.92 "Hg10 mi
11:55 AM54 °FSunny.21 mph28%29.92 "Hg10 mi
11:35 AM52 °FSunny.25 mph30%29.92 "Hg10 mi
11:15 AM52 °FSunny.26 mph32%29.92 "Hg10 mi
10:55 AM52 °FSunny.24 mph32%29.93 "Hg10 mi
10:35 AM48 °FSunny.23 mph40%29.93 "Hg10 mi
10:15 AM48 °FSunny.23 mph43%29.93 "Hg10 mi
9:55 AM46 °FSunny.25 mph43%29.93 "Hg10 mi
9:35 AM46 °FSunny.26 mph43%29.92 "Hg10 mi
9:15 AM46 °FSunny.23 mph43%29.91 "Hg10 mi
8:55 AM45 °FSunny.24 mph49%29.91 "Hg10 mi
8:35 AM43 °FSunny.23 mph53%29.91 "Hg10 mi
8:15 AM43 °FSunny.22 mph53%29.90 "Hg10 mi
7:55 AM43 °FSunny.18 mph53%29.90 "Hg10 mi
7:15 AM39 °FClear.9 mph61%29.88 "Hg10 mi
6:55 AM39 °FClear.8 mph61%29.87 "Hg10 mi
6:35 AM39 °FClear.5 mph61%29.85 "Hg10 mi
5:55 AM37 °FClear.7 mph56%29.82 "Hg10 mi
5:35 AM39 °FClear.No wind56%29.82 "Hg10 mi
5:15 AM39 °FClear.12 mph61%29.80 "Hg10 mi
4:55 AM41 °FClear.9 mph57%29.79 "Hg10 mi
4:35 AM41 °FClear.8 mph57%29.78 "Hg10 mi
4:15 AM43 °FClear.9 mph49%29.79 "Hg10 mi
3:55 AM45 °FPassing clouds.6 mph46%29.78 "Hg10 mi
3:35 AM45 °FPassing clouds.10 mph46%29.78 "Hg10 mi
3:15 AM46 °FClear.20 mph46%29.77 "Hg10 mi
2:55 AM45 °FClear.24 mph49%29.76 "Hg10 mi
2:35 AM46 °FClear.29 mph46%29.74 "Hg10 mi
2:15 AM45 °FClear.38 mph53%29.73 "Hg10 mi
1:55 AM46 °FClear.28 mph53%29.72 "Hg10 mi
1:35 AM45 °FClear.10 mph49%29.71 "Hg10 mi
12:55 AM48 °FClear.8 mph34%29.69 "Hg10 mi
12:35 AM52 °FClear.8 mph28%29.69 "Hg10 mi
12:15 AM52 °FClear.7 mph28%29.68 "Hg10 mi
11:55 PM
Apr 15
54 °FClear.10 mph24%29.68 "Hg10 mi
11:35 PM54 °FClear.13 mph24%29.68 "Hg10 mi
11:15 PM54 °FClear.17 mph24%29.67 "Hg10 mi
10:55 PM54 °FClear.12 mph24%29.68 "Hg10 mi
10:35 PM54 °FClear.7 mph26%29.70 "Hg10 mi
9:55 PM54 °FClear.12 mph26%29.71 "Hg10 mi
9:35 PM57 °FClear.15 mph21%29.71 "Hg10 mi
9:15 PM57 °FClear.20 mph21%29.71 "Hg10 mi
8:55 PM57 °FClear.18 mph21%29.71 "Hg10 mi
8:35 PM57 °FSunny.21 mph23%29.71 "Hg10 mi
8:15 PM57 °FSunny.12 mph23%29.71 "Hg10 mi
7:55 PM55 °FSunny.8 mph24%29.70 "Hg10 mi
7:35 PM57 °FSunny.14 mph21%29.70 "Hg10 mi
7:15 PM61 °FSunny.17 mph19%29.69 "Hg10 mi
Weather by CustomWeather, © 2014

See weather overview